Weather History for Suffolk, VA

Change the Weather History Date:

Sunday, December 9, 2012

  Actual Average Record
Temperature  
Mean Temperature 58 °F -  
Max Temperature 69 °F 54 °F 78 °F (1978)
Min Temperature 46 °F 35 °F 17 °F (2006)
Degree Days  
Heating Degree Days 8    
Growing Degree Days 8 (Base 50)    
Moisture  
Dew Point 56 °F    
Average Humidity 93    
Maximum Humidity 100    
Minimum Humidity 73    
Precipitation  
Precipitation 0.07 in - - ()
Sea Level Pressure  
Sea Level Pressure 30.09 in    
Wind  
Wind Speed 3 mph (South)    
Max Wind Speed 9 mph    
Max Gust Speed -    
Visibility 7 miles    
Events Fog , Rain    
Averages and records for this station are not official NWS values.
T = Trace of Precipitation, MM = Missing Value Source: NWS Daily Summary

Daily Weather History Graph

Daily Weather History Graph

Search for Another Location

Airport:

Trip Planner

Search our weather history database for the weather conditions in past years. The results will help you decide how hot, cold, wet, or windy it might be!

Date:

Astronomy

Dec. 09, 2012 Rise Set
Actual Time 7:07 AM EST 4:50 PM EST
Civil Twilight 6:38 AM EST 5:19 PM EST
Nautical Twilight 6:06 AM EST 5:51 PM EST
Astronomical Twilight 5:35 AM EST 6:22 PM EST
Moon 2:42 AM EST (12/9) 1:51 PM EST (12/9)
Length of Visible Light 10h 40m
Length of Day
9h 42m
Waning Crescent, 19% of the Moon is Illuminated
Dec 9
Waning Crescent
Dec 13
New
Dec 20
First Quarter
Dec 28
Full
Jan 4
Last Quarter

Hourly Weather History & Observations

Time (EST) Temp. Dew Point Humidity Pressure Visibility Wind Dir Wind Speed Gust Speed Precip Events Conditions
12:15 AM 53.6 °F 53.6 °F 100% 30.06 in 7.0 mi SW 4.6 mph - N/A   Clear
12:35 AM 53.6 °F 53.6 °F 100% 30.06 in 7.0 mi SW 4.6 mph - N/A   Clear
12:55 AM 53.6 °F 53.6 °F 100% 30.06 in 7.0 mi SW 3.5 mph - N/A   Clear
1:15 AM 53.6 °F 53.6 °F 100% 30.06 in 5.0 mi SW 3.5 mph - N/A   Clear
1:35 AM 51.8 °F 51.8 °F 100% 30.06 in 4.0 mi Calm Calm - N/A   Clear
1:55 AM 51.8 °F 51.8 °F 100% 30.07 in 3.0 mi Calm Calm - N/A   Clear
2:15 AM 48.2 °F 48.2 °F 100% 30.08 in 3.0 mi South 4.6 mph - N/A   Clear
2:35 AM 50.0 °F 50.0 °F 100% 30.07 in 2.5 mi South 3.5 mph - N/A   Clear
2:55 AM 51.8 °F 51.8 °F 100% 30.08 in 1.8 mi Calm Calm - N/A   Mist
3:15 AM 48.2 °F 48.2 °F 100% 30.08 in 0.2 mi Calm Calm - N/A Fog Fog
3:35 AM 48.2 °F 48.2 °F 100% 30.08 in 1.0 mi South 3.5 mph - N/A   Mist
3:55 AM 48.2 °F 48.2 °F 100% 30.08 in 0.8 mi Calm Calm - N/A   Mist
4:15 AM 50.0 °F 50.0 °F 100% 30.08 in 0.2 mi Calm Calm - N/A Fog Fog
4:35 AM 48.2 °F 48.2 °F 100% 30.08 in 0.2 mi Calm Calm - N/A Fog Fog
4:55 AM 48.2 °F 48.2 °F 100% 30.08 in 0.2 mi Calm Calm - N/A Fog Fog
5:15 AM 46.4 °F 46.4 °F 100% 30.10 in 1.5 mi Calm Calm - N/A   Scattered Clouds
5:35 AM 48.2 °F 48.2 °F 100% 30.10 in 2.0 mi Calm Calm - N/A   Mostly Cloudy
5:55 AM 48.2 °F 48.2 °F 100% 30.11 in 1.2 mi Calm Calm - N/A   Mostly Cloudy
6:15 AM 50.0 °F 50.0 °F 100% 30.11 in 1.8 mi Calm Calm - N/A   Mostly Cloudy
6:35 AM 50.0 °F 50.0 °F 100% 30.11 in 1.5 mi Calm Calm - N/A   Mist
6:55 AM 48.2 °F 48.2 °F 100% 30.12 in 1.2 mi Calm Calm - N/A   Mostly Cloudy
7:15 AM 50.0 °F 50.0 °F 100% 30.12 in 1.0 mi Calm Calm - N/A   Overcast
7:35 AM 50.0 °F 50.0 °F 100% 30.13 in 3.0 mi South 3.5 mph - N/A   Mostly Cloudy
7:55 AM 53.6 °F 53.6 °F 100% 30.15 in 2.5 mi South 3.5 mph - 0.02 in Rain Rain
8:15 AM 53.6 °F 53.6 °F 100% 30.14 in 2.5 mi SSW 3.5 mph - 0.04 in Rain Rain
8:35 AM 53.6 °F 53.6 °F 100% 30.14 in 2.5 mi Calm Calm - 0.05 in Rain Light Rain
8:55 AM 55.4 °F 55.4 °F 100% 30.14 in 2.0 mi South 3.5 mph - 0.05 in   Mostly Cloudy
9:15 AM 55.4 °F 55.4 °F 100% 30.15 in 2.5 mi Calm Calm - N/A   Scattered Clouds
9:35 AM 57.2 °F 57.2 °F 100% 30.16 in 4.0 mi Calm Calm - N/A   Scattered Clouds
9:55 AM 57.2 °F 57.2 °F 100% 30.16 in 4.0 mi South 4.6 mph - N/A   Scattered Clouds
10:35 AM 59.0 °F 59.0 °F 100% 30.15 in 5.0 mi SSW 3.5 mph - N/A   Mostly Cloudy
10:55 AM 60.8 °F 59.0 °F 94% 30.15 in 7.0 mi South 5.8 mph - N/A   Mostly Cloudy
11:15 AM 62.6 °F 60.8 °F 94% 30.14 in 10.0 mi SW 4.6 mph - N/A   Scattered Clouds
11:35 AM 62.6 °F 60.8 °F 94% 30.13 in 10.0 mi SSW 5.8 mph - N/A   Scattered Clouds
11:55 AM 62.6 °F 60.8 °F 94% 30.12 in 10.0 mi SSW 5.8 mph - N/A   Scattered Clouds
12:15 PM 62.6 °F 60.8 °F 94% 30.11 in 10.0 mi SSW 5.8 mph - N/A   Scattered Clouds
12:35 PM 66.2 °F 62.6 °F 88% 30.10 in 10.0 mi South 3.5 mph - N/A   Scattered Clouds
12:55 PM 66.2 °F 62.6 °F 88% 30.10 in 10.0 mi SSW 4.6 mph - N/A   Clear
1:15 PM 66.2 °F 62.6 °F 88% 30.09 in 10.0 mi South 3.5 mph - N/A   Clear
1:35 PM 68.0 °F 62.6 °F 83% 30.09 in 10.0 mi SSW 3.5 mph - N/A   Scattered Clouds
1:55 PM 68.0 °F 60.8 °F 78% 30.09 in 10.0 mi SW 4.6 mph - N/A   Scattered Clouds
2:15 PM 68.0 °F 62.6 °F 83% 30.08 in 10.0 mi SSE 5.8 mph - N/A   Scattered Clouds
2:35 PM 69.8 °F 60.8 °F 73% 30.08 in 10.0 mi South 8.1 mph - N/A   Clear
2:55 PM 68.0 °F 60.8 °F 78% 30.08 in 10.0 mi South 5.8 mph - N/A   Clear
3:15 PM 69.8 °F 62.6 °F 78% 30.09 in 10.0 mi SSE 5.8 mph - N/A   Clear
3:35 PM 68.0 °F 60.8 °F 78% 30.09 in 10.0 mi South 5.8 mph - N/A   Clear
3:55 PM 66.2 °F 60.8 °F 83% 30.09 in 10.0 mi South 5.8 mph - N/A   Clear
4:15 PM 66.2 °F 60.8 °F 83% 30.09 in 10.0 mi Calm Calm - N/A   Scattered Clouds
4:35 PM 64.4 °F 60.8 °F 88% 30.09 in 10.0 mi Calm Calm - N/A   Overcast
4:55 PM 64.4 °F 60.8 °F 88% 30.09 in 10.0 mi Calm Calm - N/A   Overcast
5:15 PM 64.4 °F 60.8 °F 88% 30.09 in 10.0 mi Calm Calm - N/A   Overcast
5:35 PM 62.6 °F 60.8 °F 94% 30.09 in 10.0 mi Calm Calm - N/A   Overcast
5:55 PM 60.8 °F 60.8 °F 100% 30.09 in 7.0 mi Calm Calm - N/A   Scattered Clouds
6:15 PM 60.8 °F 59.0 °F 94% 30.09 in 4.0 mi ESE 4.6 mph - N/A   Clear
6:35 PM 62.6 °F 60.8 °F 94% 30.09 in 10.0 mi Calm Calm - N/A   Mostly Cloudy
6:55 PM 62.6 °F 60.8 °F 94% 30.08 in 10.0 mi SE 4.6 mph - N/A   Mostly Cloudy
7:15 PM 62.6 °F 59.0 °F 88% 30.08 in 10.0 mi SE 5.8 mph - N/A   Mostly Cloudy
7:35 PM 62.6 °F 57.2 °F 82% 30.08 in 10.0 mi SSE 5.8 mph - N/A   Scattered Clouds
7:55 PM 62.6 °F 57.2 °F 82% 30.07 in 10.0 mi SSE 6.9 mph - N/A   Clear
8:15 PM 62.6 °F 57.2 °F 82% 30.06 in 10.0 mi SSE 6.9 mph - N/A   Clear
8:35 PM 62.6 °F 57.2 °F 82% 30.06 in 10.0 mi SSE 6.9 mph - N/A   Clear
8:55 PM 62.6 °F 57.2 °F 82% 30.07 in 10.0 mi South 4.6 mph - N/A   Clear
9:15 PM 60.8 °F 57.2 °F 88% 30.07 in 10.0 mi South 4.6 mph - N/A   Clear
9:35 PM 60.8 °F 57.2 °F 88% 30.06 in 10.0 mi South 5.8 mph - N/A   Clear
9:55 PM 60.8 °F 57.2 °F 88% 30.05 in 10.0 mi SSE 4.6 mph - N/A   Clear
10:15 PM 60.8 °F 57.2 °F 88% 30.05 in 10.0 mi SSE 5.8 mph - N/A   Clear
10:35 PM 60.8 °F 59.0 °F 94% 30.05 in 10.0 mi South 6.9 mph - N/A   Clear
10:55 PM 62.6 °F 59.0 °F 88% 30.04 in 10.0 mi South 9.2 mph - N/A   Clear
11:15 PM 62.6 °F 60.8 °F 94% 30.03 in 10.0 mi South 8.1 mph - N/A   Clear
11:35 PM 62.6 °F 60.8 °F 94% 30.03 in 10.0 mi South 8.1 mph - N/A   Scattered Clouds
11:55 PM 60.8 °F 60.8 °F 100% 30.02 in 10.0 mi South 6.9 mph - N/A   Clear